Zurück zum Katalog

THOR ABLESTAR DEB

AktivLEO
NORAD 158·DEBRIS·🇺🇸 United States

Gestartet Jun 29, 1961 von Cape Canaveral Space Force Station

Loading…

Nächste Überflüge (nächste 24 Stunden)

TLE

AktuellSource: Space-Track

Epoche: Sep 8, 2026, 19:19 UTC

1   158U 61015AU  26251.80513100  .00000207  00000-0  66153-3 0  9994
2   158  67.0745  49.4823 0611243 193.5543 164.8400 12.66260765 15800

Verfolge THOR ABLESTAR DEB in Echtzeit mit AllMySat

Download on the App Store